Location: Prague
(50.0830°N, 14.4670°E)
Time: 09:49:17
(UTC+01:00)

STARLINK-1617 - Pass Details

Date: 26 January 2021
Orbit: 545 x 549 km, 53.1° (Epoch: 25 February)

Event Time Altitude Azimuth Distance (km) Brightness Sun altitude
Exits shadow 06:55:02 10° 290° (WNW) 1,805 5.5 -8.0°
Maximum altitude 06:59:06 66° 12° (NNE) 602 3.8 -7.4°
Drops below altitude 10° 07:03:13 10° 96° (E) 1,819 7.8 -6.7°
Sets 07:05:28 0° 99° (E) 2,711 9.2 -6.4°
